Flag for Moldova Weather past 2 weeks in Cahul, Moldova

Now
68 °F

Clear.


Feels Like: 68 °F
Forecast: 66 / 97 °F
Wind: 2 mph from North

Location: Galati

Current Time: Aug 2, 2014 at 6:11:51 AM

Latest Report: Aug 2, 2014 at 5:00 AM


Visibility: 13 mi

Pressure: 29.81 "Hg

Humidity: 79%

Dew point: 61 °F

Location of CahulLocation

Historic Weather in Cahul — Graph

°F

Cahul temperature yesterday

Maximum temperature yesterday: 93 °F (at 4:00 PM)
Minimum temperature yesterday: 68 °F (at 7:00 AM)
Average temperature yesterday: 79 °F

Past Weeks' High & Low Weather Summary

 TemperatureHumidityPressure
High93 °F (Aug 1, 4:00 PM)100% (Jul 23, 7:00 AM)30.03 "Hg (Jul 23, 7:00 AM)
Low64 °F (Jul 21, 6:00 AM)26% (Aug 1, 5:00 PM)29.74 "Hg (Jul 23, 4:00 PM)
Average76 °F66%29.88 "Hg
* Reported Jul 18 5:00 AM — Aug 2 5:00 AM, Cahul, Weather by CustomWeather, © 2014

Note: Actual official high and low records may vary slightly from our data, if they occured in-between our weather recording intervals... More about our weather records

Advertising

Cahul weather history for previous 24 hours

 ConditionsComfort  
Time TempWeatherWind HumidityBarometerVisibility
5:00 AM
Aug 2
68 °FClear.2 mph79%29.81 "Hg12 mi
4:00 AM74 °FClear.2 mph64%29.81 "Hg12 mi
3:00 AM74 °FClear.3 mph64%29.81 "Hg12 mi
2:00 AM76 °FPassing clouds.2 mph63%29.81 "Hg12 mi
1:00 AM76 °FClear.1 mph68%29.81 "Hg12 mi
12:00 AM75 °FClear.1 mph73%29.80 "Hg12 mi
11:00 PM
Aug 1
77 °FClear.1 mph73%29.81 "Hg12 mi
10:00 PM78 °FPassing clouds.No wind66%29.80 "Hg12 mi
9:00 PM81 °FPassing clouds.1 mph65%29.78 "Hg12 mi
8:00 PM85 °FPartly sunny.2 mph50%29.77 "Hg12 mi
7:00 PM87 °FPartly sunny.2 mph41%29.77 "Hg12 mi
6:00 PM91 °FScattered clouds.2 mph29%29.77 "Hg12 mi
5:00 PM92 °FScattered clouds.2 mph26%29.78 "Hg12 mi
4:00 PM93 °FPassing clouds.2 mph30%29.78 "Hg12 mi
3:00 PM91 °FPassing clouds.2 mph30%29.78 "Hg12 mi
2:00 PM90 °FSunny.2 mph32%29.79 "Hg12 mi
1:00 PM88 °FSunny.3 mph35%29.80 "Hg12 mi
12:00 PM86 °FSunny.3 mph36%29.81 "Hg12 mi
11:00 AM81 °FSunny.3 mph53%29.82 "Hg12 mi
10:00 AM76 °FSunny.5 mph61%29.82 "Hg12 mi
9:00 AM73 °FSunny.5 mph63%29.82 "Hg12 mi
8:00 AM69 °FSunny.3 mph69%29.82 "Hg12 mi
7:00 AM68 °FSunny.3 mph69%29.82 "Hg12 mi
6:00 AM68 °FSunny.3 mph70%29.81 "Hg12 mi
Weather by CustomWeather, © 2014

See weather overviewHow to use our weather pages